This demonstration page uses our WeatherBlox Daily Observations layout. Learn more.

39.08367, -84.50855

Hourly Observations for October 10, 2019

Temp ( °F °C ) Dew Point ( °F °C ) Humidity (%) Winds ( mph kmh ) Pressure ( in mb ) Visibility ( mi km ) Precip ( " mm )
12:05 am 00:05 Clear with Mist and Fog 54 12.2 53 11.7 97 97 Calm 30.15 1021 2 3.21868 0 0
12:12 am 00:12 Clear with Mist and Fog 54 12.2 54 12.2 100 100 ENE 3 6 30.15 1021 5 8.0467 0 0
12:51 am 00:51 Clear with Mist and Fog 54 12 54 12 100 100 NE 3 6 30.14 1021 1.75 2.816345 0 0
12:53 am 00:53 Clear with Mist and Fog 53 11.7 53 11.7 100 100 NE 3 6 30.14 1021 1.5 2.41401 0 0
1:00 am 01:00 Mostly Clear with Mist and Fog 52 11.1 52 11.1 100 100 Calm 30.15 1021 1.75 2.816345 0 0
1:02 am 01:02 Mostly Clear with Mist and Fog 54 12.2 53 11.7 97 97 Calm 30.14 1021 3 4.82802 0 0
1:15 am 01:15 Mostly Clear with Mist and Fog 52 11.1 52 11.1 100 100 Calm 30.15 1021 1.75 2.816345 0 0
1:19 am 01:19 Mostly Cloudy with Mist and Fog 53 11.7 52 11.1 96 96 E 3 6 30.14 1021 0.75 1.207005 0 0
1:34 am 01:34 Clear with Mist and Fog 52 11.1 52 11.1 100 100 Calm 30.15 1021 1.25 2.011675 0 0
1:38 am 01:38 Clear with Mist and Fog 53 11.7 52 11.1 96 96 Calm 30.14 1021 4 6.43736 0 0
1:46 am 01:46 Mostly Clear with Mist and Fog 53 11.7 52 11.1 96 96 Calm 30.14 1021 4 6.43736 0 0
1:53 am 01:53 Partly Cloudy with Mist and Fog 52 11.1 52 11.1 100 100 Calm 30.13 1020 2.5 4.02335 0 0
1:57 am 01:57 Mostly Cloudy with Mist and Fog 53 11.7 52 11.1 96 96 Calm 30.14 1021 4 6.43736 0 0
2:38 am 02:38 Cloudy 54 12.2 54 12.2 100 100 Calm 30.15 1021 10 16.0934 0 0
2:49 am 02:49 Mostly Cloudy with Mist and Fog 54 12 54 12 100 100 Calm 30.15 1021 0.75 1.207005 0 0
2:53 am 02:53 Mostly Cloudy with Fog 54 12.2 54 12.2 100 100 Calm 30.14 1021 0.25 0.402335 0 0
3:53 am 03:53 Mostly Cloudy with Fog 55 12.8 55 12.8 100 100 Calm 30.14 1021 5 8.0467 0 0
4:18 am 04:18 Mostly Cloudy with Fog 53 11.7 53 11.7 100 100 NNE 3 6 30.15 1021 0.5 0.80467 0 0
4:28 am 04:28 Mostly Cloudy with Fog 53 11.7 53 11.7 100 100 Calm 30.15 1021 0.25 0.402335 0 0
4:53 am 04:53 Mostly Cloudy with Fog 53 11.7 53 11.7 100 100 NE 3 6 30.14 1021 0.5 0.80467 0 0
5:33 am 05:33 Mostly Cloudy with Fog 52 11.1 52 11.1 100 100 E 3 6 30.16 1021 0.5 0.80467 0 0
5:50 am 05:50 Cloudy with Mist and Fog 52 11 52 11 100 100 Calm 30.17 1022 1.75 2.816345 0 0
5:53 am 05:53 Cloudy with Mist and Fog 52 11.1 52 11.1 100 100 Calm 30.15 1021 2.5 4.02335 0 0
6:00 am 06:00 Mostly Cloudy 52 11.1 52 11.1 100 100 ENE 3 6 30.17 1022 7 11.26538 0 0
6:11 am 06:11 Partly Cloudy 52 11.1 52 11.1 100 100 ENE 3 6 30.17 1022 9 14.48406 0 0
6:53 am 06:53 Partly Cloudy 52 11.1 52 11.1 100 100 Calm 30.16 1021 7 11.26538 0 0
7:16 am 07:16 Partly Cloudy with Patchy Fog 51 10.6 51 10.6 100 100 Calm 30.18 1022 4 6.43736 0 0
7:53 am 07:53 Partly Cloudy with Patchy Fog 52 11.1 52 11.1 100 100 Calm 30.16 1021 4 6.43736 0 0
9:53 am 09:53 Partly Cloudy with Patchy Fog 60 15.6 58 14.4 93 93 Calm 30.16 1022 9 14.48406 0 0
10:53 am 10:53 Sunny 67 19.4 61 16.1 81 81 Calm 30.18 1022 10 16.0934 0 0
11:53 am 11:53 Sunny 71 21.7 61 16.1 71 71 SSE 5 7 30.17 1022 10 16.0934 0 0
12:53 pm 12:53 Sunny 75 23.9 63 17.2 66 66 SSE 6 9 30.15 1021 10 16.0934 0 0
1:53 pm 13:53 Sunny 77 25 62 16.7 60 60 VRB 3 6 30.12 1020 10 16.0934 0 0
2:53 pm 14:53 Partly Cloudy 78 25.6 61 16.1 56 56 S 7 11 30.11 1020 10 16.0934 0 0
3:53 pm 15:53 Mostly Sunny 80 26.7 60 15.6 51 51 ESE 7 11 30.08 1019 10 16.0934 0 0
4:53 pm 16:53 Mostly Sunny 78 25.6 55 12.8 45 45 SSE 7 11 30.06 1018 10 16.0934 0 0
5:53 pm 17:53 Mostly Sunny 76 24.4 57 13.9 52 52 SE 5 7 30.06 1018 10 16.0934 0 0
6:53 pm 18:53 Mostly Sunny 68 20 62 16.7 81 81 Calm 30.06 1018 10 16.0934 0 0
7:53 pm 19:53 Mostly Clear 64 17.8 61 16.1 90 90 Calm 30.06 1018 10 16.0934 0 0
8:53 pm 20:53 Clear 63 17.2 60 15.6 90 90 Calm 30.06 1018 10 16.0934 0 0
9:53 pm 21:53 Clear 61 16.1 59 15 93 93 Calm 30.06 1018 10 16.0934 0 0
10:53 pm 22:53 Clear 61 16.1 59 15 93 93 Calm 30.07 1018 10 16.0934 0 0
11:53 pm 23:53 Mostly Clear 60 15.6 59 15 96 96 Calm 30.07 1018 10 16.0934 0 0

Powered by AerisWeather